Weather in Novator

Russia / Vologda Oblast     60°44′53″N   46°12′36″E
temp.,
°C
wind,
m/s
gust,
m/s
humid.,
%
clouds,
%
prec.,
mm/h
press.,
hPa
HPBL,
m
23 april, fri
fri2300:00+3ssw4119387 0.0 1017441
03:00+2s269712 0.0 1018149
06:00+3s259513 0.0 1019158
09:00+9s36735 0.0 1020588
12:00+13s575765 0.1 10191571
15:00+15s575137 0.6 10191857
18:00+12sse596179 0.1 1019815
21:00+10se5127322 0.1 1019483
24 april, sat
sat2400:00+7se4118143 0.0 1019259
03:00+8se41076100 0.0 1018269
06:00+8se31073100 0.0 1017382
09:00+10se4106389 0.0 1017608
12:00+13se685165 0.1 10151700
15:00+12se585289 0.2 10131388
18:00+10ese5957100 0.0 10121217
21:00+8ese41168100 0.0 1011685
25 april, sun
sun2500:00+7e41077100 0.0 1009654
03:00+6e4887100 0.1 10071043
06:00+6e4894100 0.8 1005969
09:00+5e4895100 1.4 1004853
12:00+5e4896100 0.5 1003817
15:00+5e4896100 1.1 1002815
18:00+5ene3895100 0.7 1001828
21:00+4ene3598100 0.9 1001726
26 april, mon
mon2600:00+3ene2498100 0.6 1000652
03:00+3ene1398100 1.4 1000591
06:00+3se0198100 0.4 1001553
09:00+3s1197100 1.1 1002546
12:00+4s2397100 0.6 1003627
15:00+2sw3897100 1.5 1004444
18:00+2sw31097100 0.9 1005631
21:00+2sw41097100 1.3 1006822
27 april, tue
tue2700:00+2sw41091100 0.1 1006769
03:00+1sw31090100 0.1 1006573
06:00+1ssw38906 0.0 1006291
09:00+6sw36665 0.0 10061026
12:00+8sw3452100 0.3 10051676
15:00+9ssw234397 0.5 10041739
18:00+7sse2360100 0.1 1003103
21:00+4sw2280100 0.1 100330